Cairns, Australia

10:17 AM AEST on September 22, 2017 (GMT +1000)
Cairns International

Weather History for YBCS - November, 2011

Change the Weather History Date:

Sunday, November 6, 2011

  Actual Average Record
Temperature  
Mean Temperature 78 °F -  
Max Temperature 84 °F 87 °F 89 °F (2008)
Min Temperature 72 °F 72 °F 68 °F (2006)
Cooling Degree Days 13    
Growing Degree Days 28 (Base 50)    
Moisture  
Dew Point 72 °F    
Average Humidity 85    
Maximum Humidity 94    
Minimum Humidity 59    
Precipitation  
Precipitation 0.20 in 0.16 in - ()
Sea Level Pressure  
Sea Level Pressure 29.87 in    
Wind  
Wind Speed 8 mph ()    
Max Wind Speed 17 mph    
Max Gust Speed -    
Visibility 6.0 miles    
Events Rain    
Averages and records for this station are not official NWS values.
T = Trace of Precipitation, MM = Missing Value Source: Averaged Metar Reports

Daily Weather History Graph

Daily Weather History Graph

Search for Another Location

Airport or City:

Trip Planner

Search our weather history database for the weather conditions in past years. The results will help you decide how hot, cold, wet, or windy it might be!

Date:

Astronomy

Nov. 06, 2011 Rise Set
Actual Time 5:37 AM AEST 6:24 PM AEST
Civil Twilight 5:14 AM AEST 6:46 PM AEST
Nautical Twilight 4:48 AM AEST 7:13 PM AEST
Astronomical Twilight 4:20 AM AEST 7:40 PM AEST
Moon 2:45 PM AEST (11/6) 2:22 AM AEST (11/6)
Length of Visible Light 13h 32m
Length of Day
12h 46m
Waxing Gibbous, 81% of the Moon is Illuminated
Nov 6
Waxing Gibbous
Nov 11
Full
Nov 19
Last Quarter
Nov 25
New
Dec 2
First Quarter

Hourly Weather History & Observations

Time (AEST) Temp. Heat Index Dew Point Humidity Pressure Visibility Wind Dir Wind Speed Gust Speed Precip Events Conditions
12:00 AM 76 °F - 73 °F 89% 29.88 in 5 mi SSE 8.1 mph - - Rain Light Rain Showers
12:00 AM 77.0 °F - 73.4 °F 89% 29.86 in 3.7 mi SSE 8.1 mph - N/A Rain Light Rain Showers
12:30 AM 75.2 °F - 73.4 °F 94% 29.86 in 5.6 mi SSE 8.1 mph - N/A Rain Light Rain Showers
1:00 AM 76 °F - 73 °F 88% 29.86 in - SE 5.8 mph - -  
1:00 AM 77.0 °F - 73.4 °F 89% 29.83 in 5.6 mi SE 5.8 mph - N/A Rain Light Rain Showers
1:30 AM 77.0 °F - 73.4 °F 89% 29.83 in 6.2 mi SSE 6.9 mph - N/A   Scattered Clouds
2:00 AM 75.2 °F - 73.4 °F 94% 29.83 in 5.6 mi SSE 8.1 mph - N/A Rain Light Rain Showers
2:30 AM 75.2 °F - 73.4 °F 94% 29.83 in 6.2 mi South 6.9 mph - N/A Rain Light Rain Showers
3:00 AM 76 °F - 73 °F 86% 29.83 in 9 mi South 5.8 mph - - Rain Light Rain Showers
3:00 AM 75.2 °F - 73.4 °F 94% 29.83 in 6.2 mi South 5.8 mph - N/A Rain Light Rain Showers
3:30 AM 75.2 °F - 73.4 °F 94% 29.80 in 6.2 mi SSE 6.9 mph - N/A   Scattered Clouds
4:00 AM 76 °F - 72 °F 86% 29.83 in - South 6.9 mph - -  
4:00 AM 75.2 °F - 73.4 °F 94% 29.80 in 6.2 mi South 6.9 mph - N/A   Mostly Cloudy
4:30 AM 75.2 °F - 73.4 °F 94% 29.83 in 6.2 mi South 6.9 mph - N/A   Mostly Cloudy
5:00 AM 75.2 °F - 73.4 °F 94% 29.83 in 6.2 mi SSE 9.2 mph - N/A Rain Light Rain Showers
5:30 AM 75.2 °F - 71.6 °F 89% 29.86 in 5.6 mi South 12.7 mph - N/A Rain Light Rain Showers
5:49 AM 73.4 °F - 71.6 °F 94% 29.86 in 2.5 mi South 15.0 mph - N/A Rain Rain Showers
6:00 AM 72 °F - 70 °F 91% 29.88 in 6 mi South 12.7 mph - - Rain Heavy Rain Showers
6:00 AM 73.4 °F - 69.8 °F 88% 29.86 in 5.6 mi South 12.7 mph - N/A Rain Rain Showers
6:30 AM 71.6 °F - 69.8 °F 94% 29.89 in 6.2 mi SSE 11.5 mph - N/A Rain Rain Showers
6:38 AM 71.6 °F - 69.8 °F 94% 29.89 in 6.2 mi SSE 11.5 mph - N/A Rain Rain Showers
7:00 AM 73 °F - 70 °F 89% 29.91 in - South 6.9 mph - -  
7:00 AM 73.4 °F - 69.8 °F 88% 29.89 in 6.2 mi South 6.9 mph - N/A   Mostly Cloudy
7:19 AM 75.2 °F - 71.6 °F 89% 29.89 in 6.2 mi SSE 3.5 mph - N/A   Mostly Cloudy
7:30 AM 75.2 °F - 71.6 °F 89% 29.89 in 6.2 mi Calm Calm - N/A   Mostly Cloudy
7:41 AM 75.2 °F - 71.6 °F 89% 29.89 in 6.2 mi South 1.2 mph - N/A   Mostly Cloudy
8:00 AM 77.0 °F - 71.6 °F 83% 29.89 in 6.2 mi SSE 6.9 mph - N/A   Mostly Cloudy
8:19 AM 77.0 °F - 71.6 °F 83% 29.92 in 6.2 mi SSE 6.9 mph - N/A   Mostly Cloudy
8:30 AM 75.2 °F - 71.6 °F 89% 29.92 in 1.9 mi South 8.1 mph - N/A Rain Rain Showers
8:44 AM 75.2 °F - 73.4 °F 94% 29.92 in 6.2 mi South 9.2 mph - N/A Rain Light Rain Showers
9:00 AM 76 °F - 72 °F 84% 29.93 in 11 mi South 10.4 mph - - Rain Light Rain Showers
9:00 AM 75.2 °F - 71.6 °F 89% 29.92 in 6.2 mi South 10.4 mph - N/A Rain Light Rain Showers
9:30 AM 77.0 °F - 73.4 °F 89% 29.92 in 6.2 mi South 10.4 mph - N/A   Mostly Cloudy
10:00 AM 78 °F - 73 °F 82% 29.93 in - South 8.1 mph - -  
10:00 AM 78.8 °F - 73.4 °F 83% 29.92 in 6.2 mi South 8.1 mph - N/A   Mostly Cloudy
10:30 AM 78.8 °F - 73.4 °F 83% 29.92 in 6.2 mi SSE 9.2 mph - N/A   Mostly Cloudy
11:00 AM 80.6 °F 84.6 °F 71.6 °F 74% 29.89 in 6.2 mi SSE 9.2 mph - N/A   Mostly Cloudy
11:30 AM 80.6 °F 84.6 °F 71.6 °F 74% 29.89 in 6.2 mi ESE 9.2 mph - N/A   Mostly Cloudy
12:00 PM 81 °F - 71 °F 65% 29.88 in 16 mi ESE 9.2 mph - -   Partly Cloudy
12:00 PM 80.6 °F 84.6 °F 71.6 °F 74% 29.86 in 6.2 mi ESE 9.2 mph - N/A   Mostly Cloudy
12:30 PM 80.6 °F 83.9 °F 69.8 °F 70% 29.86 in 6.2 mi SE 12.7 mph - N/A Rain Light Rain Showers
1:00 PM 81 °F - 71 °F 66% 29.87 in - SSE 9.2 mph - -  
1:00 PM 80.6 °F 84.6 °F 71.6 °F 74% 29.86 in 6.2 mi SSE 9.2 mph - N/A   Mostly Cloudy
1:30 PM 82.4 °F 86.3 °F 69.8 °F 66% 29.83 in 6.2 mi SE 11.5 mph - N/A   Mostly Cloudy
2:00 PM 84.2 °F 89.6 °F 71.6 °F 66% 29.83 in 6.2 mi SE 11.5 mph - N/A   Scattered Clouds
2:30 PM 84.2 °F 89.6 °F 71.6 °F 66% 29.80 in 6.2 mi SE 11.5 mph - N/A   Partly Cloudy
3:00 PM 83 °F - 71 °F 59% 29.82 in 16 mi East 12.7 mph - -   Mostly Cloudy
3:00 PM 84.2 °F 89.6 °F 71.6 °F 66% 29.80 in 6.2 mi East 12.7 mph - N/A   Partly Cloudy
3:30 PM 82.4 °F 86.3 °F 69.8 °F 66% 29.80 in 6.2 mi SE 12.7 mph - N/A   Partly Cloudy
4:00 PM 80 °F - 70 °F 65% 29.82 in - SE 17.3 mph - -  
4:00 PM 80.6 °F 83.9 °F 69.8 °F 70% 29.80 in 6.2 mi SE 17.3 mph - N/A   Partly Cloudy
4:30 PM 80.6 °F 84.6 °F 71.6 °F 74% 29.80 in 6.2 mi SE 11.5 mph - N/A Rain Light Rain Showers
5:00 PM 78.8 °F - 71.6 °F 78% 29.83 in 6.2 mi South 10.4 mph - N/A   Mostly Cloudy
5:30 PM 77.0 °F - 71.6 °F 83% 29.83 in 4.3 mi South 10.4 mph - N/A Rain Light Rain Showers
5:42 PM 77.0 °F - 71.6 °F 83% 29.83 in 2.5 mi South 9.2 mph - N/A Rain Light Rain Showers
5:53 PM 75.2 °F - 71.6 °F 89% 29.86 in 1.2 mi South 8.1 mph - N/A Rain Rain Showers
6:00 PM 75 °F - 72 °F 86% 29.86 in 3 mi South 8.1 mph - -   Overcast
6:00 PM 75.2 °F - 71.6 °F 89% 29.86 in 2.5 mi South 8.1 mph - N/A Rain Light Rain Showers
6:30 PM 75.2 °F - 71.6 °F 89% 29.86 in 5.0 mi SSW 6.9 mph - N/A Rain Light Rain Showers
6:38 PM 75.2 °F - 71.6 °F 89% 29.86 in 2.5 mi SSE 5.8 mph - N/A Rain Light Rain Showers
6:55 PM 75.2 °F - 73.4 °F 94% 29.86 in 5.0 mi SE 5.8 mph - N/A Rain Light Rain Showers
7:00 PM 74 °F - 72 °F 91% 29.88 in - SE 5.8 mph - -  
7:00 PM 75.2 °F - 71.6 °F 89% 29.86 in 6.2 mi SE 5.8 mph - N/A Rain Light Rain Showers
7:30 PM 73.4 °F - 71.6 °F 94% 29.89 in 6.2 mi South 12.7 mph - N/A Rain Light Rain Showers
8:00 PM 73.4 °F - 71.6 °F 94% 29.89 in 5.0 mi South 10.4 mph - N/A Rain Light Rain Showers
8:30 PM 75.2 °F - 71.6 °F 89% 29.89 in 5.6 mi South 10.4 mph - N/A Rain Light Rain Showers
9:00 PM 74 °F - 71 °F 87% 29.90 in 9 mi South 11.5 mph - -   Mostly Cloudy
9:00 PM 73.4 °F - 71.6 °F 94% 29.89 in 5.6 mi South 11.5 mph - N/A Rain Light Rain Showers
9:30 PM 73.4 °F - 69.8 °F 88% 29.89 in 5.6 mi South 12.7 mph - N/A Rain Light Rain Showers
10:00 PM 74 °F - 71 °F 86% 29.91 in - South 13.8 mph - -  
10:00 PM 73.4 °F - 71.6 °F 94% 29.89 in 6.2 mi South 13.8 mph - N/A   Mostly Cloudy
10:12 PM 73.4 °F - 71.6 °F 94% 29.89 in 3.7 mi South 13.8 mph - N/A Rain Light Rain Showers
10:30 PM 73.4 °F - 69.8 °F 88% 29.89 in 5.6 mi SSW 11.5 mph - N/A Rain Light Rain Showers
11:00 PM 73.4 °F - 69.8 °F 88% 29.89 in 6.2 mi South 12.7 mph - N/A   Mostly Cloudy
11:30 PM 75.2 °F - 69.8 °F 83% 29.89 in 6.2 mi South 11.5 mph - N/A   Scattered Clouds